Location: Gleizolles
(44.4833°N, 6.7667°E)
Time: 20:33:14
(UTC+00:00)

A-11 Canister half - Pass Details

Date: 04 July 2024
Orbit: 1524 x 1684 km, 47.3° (Epoch: 18 July)

Event Time Altitude Azimuth Distance (km) Brightness Sun altitude
Rises 13:26:49 0° 287° (WNW) 4,743 11.8 58.9°
Reaches altitude 10° 13:29:55 10° 287° (WNW) 3,741 11.5 58.4°
Maximum altitude 13:39:23 89° 18° (NNE) 1,534 10.2 57.0°
Drops below altitude 10° 13:48:41 10° 110° (ESE) 3,686 10.9 55.5°
Sets 13:51:43 0° 110° (ESE) 4,671 11.3 55.0°
